Вернуться в каталог

COSMOS 839 DEB

АктивенUNKNOWN
NORAD 10444·DEBRIS·🇷🇺 Russia

Запущен Jul 8, 1976 с Plesetsk Cosmodrome

Loading…

Ближайшие Пролёты (ближайшие 24 часа)

TLE

СвежийSource: Space-Track

Эпоха: Sep 14, 2026, 16:15 UTC

1 10444U 76067V   26257.67733907 -.00000021  00000-0  87099-4 0  9994
2 10444  65.7924 249.7637 0744472 181.8991 177.9145 12.51637068290342

Отслеживайте COSMOS 839 DEB в реальном времени с AllMySat

Download on the App Store